Regional Weather Roundup
Issued by NWS

Home | Current Version | Previous Version | Graphics & Text | Print | Product List | Glossary Off
Versions: 1 2 3 4 5 6 7 8 9 10 11 12 13 14 15 16 17 18 19 20 21 22 23 24 25 26 27 28 29 30 31 32 33 34 35 36 37 38 39 40 41 42 43 44 45 46 47 48 49 50

000
ASUS43 KDTX 232110
RWRMI
MICHIGAN HOURLY REGIONAL WEATHER ROUNDUP
NATIONAL WEATHER SERVICE DETROIT/PONTIAC MI
400 PM EST TUE JAN 23 2018

NOTE: "FAIR" INDICATES FEW OR NO CLOUDS BELOW 12,000 FEET WITH NO
SIGNIFICANT WEATHER AND/OR OBSTRUCTION TO VISIBILITY.

MIZ047>049-052>055-059>063-066>070-074>076-081>083-232200-
SOUTHEAST LOWER MICHIGAN

CITY           SKY/WX    TMP DP  RH WIND       PRES   REMARKS
ADRIAN         CLOUDY    33  25  72 NW22G29   29.75R WCI  21
ALMA           CLOUDY    29  26  88 W16       29.74R WCI  17
ANN ARBOR      CLOUDY    32  26  78 W23G29    29.71R WCI  19
BAD AXE        CLOUDY    27  25  93 NW12      29.66R FOG     WCI  16
CARO           LGT SNOW  30  27  86 NW12      29.68R WCI  21
DETROIT CITY   CLOUDY    35  27  72 W12G24    29.67R WCI  27
DETROIT        CLOUDY    35  27  72 W20G31    29.70R WCI  24
FLINT          LGT SNOW  30  26  85 NW17G28   29.70R FOG     WCI  18
GROSSE ILE     CLOUDY    35  28  75 W15G25    29.69R WCI  25
HILLSDALE      CLOUDY    32  27  80 W22G28    29.74R WCI  19
HOWELL         CLOUDY    31  29  90 W17G24    29.70R WCI  20

CITY           SKY/WX    TMP DP  RH WIND       PRES   REMARKS
JACKSON        CLOUDY    31  25  78 W14       29.73R WCI  21
LAMBERTVILLE   CLOUDY    34  27  76 W16G24    29.75R WCI  23
LANSING        CLOUDY    30  25  81 NW15G28   29.74R WCI  19
LAPEER         CLOUDY    32  28  88 NW9G20    29.66R WCI  24
MONROE         CLOUDY    34  26  72 W18G31    29.72R WCI  23
MT. CLEMENS    CLOUDY    35  33  91 W18       29.64R WCI  25
PONTIAC        CLOUDY    32  30  92 W20G28    29.65R WCI  20
PORT HOPE        N/A     26  21  81 NW17G25   29.65R WCI  13
PORT HURON     CLOUDY    36  30  80 W8G16     29.63R WCI  29
TRI CITIES     CLOUDY    29  25  85 W17       29.70R WCI  17
MIDLAND        CLOUDY    28  23  81 NW9G18    29.71R WCI  19
TROY           CLOUDY    35  30  81 W20       29.69R WCI  24
SAGINAW HB     CLOUDY    30  27  86 NW16G22   29.70R WCI  19
$$
MIZ043>046-050>051-056>058-064>065-071>073-077>080-232200-
SOUTHWEST LOWER MICHIGAN

CITY           SKY/WX    TMP DP  RH WIND       PRES   REMARKS
BATTLE CREEK   CLOUDY    30  25  81 W18G31    29.79R WCI  18
BENTON HARBOR  CLOUDY    31  25  78 NW13G22   29.88R WCI  21
BIG RAPIDS     CLOUDY    26  21  83 NW14G20   29.75R WCI  14
COLDWATER      CLOUDY    32  28  88 W16G23    29.79R WCI  21
FREMONT        CLOUDY    28  21  75 NW17G23   29.79R WCI  15
HOLLAND        LGT SNOW  31  26  82 NW12G26   29.84R WCI  22
GRAND RAPIDS   CLOUDY    29  23  78 W18G26    29.78R WCI  16
IONIA          CLOUDY    30  24  80 NW15G26   29.75R WCI  19
KALAMAZOO      FLURRIES  31  25  78 NW17G32   29.81R WCI  19
LUDINGTON      CLOUDY    30  24  78 N14G25    29.82R WCI  19
MARSHALL       CLOUDY    30  26  83 W18       29.77R WCI  18
MOUNT PLEASANT CLOUDY    28  22  77 NW12G24   29.73R WCI  18
MUSKEGON       CLOUDY    30  23  75 NW18G24   29.83R WCI  18
SOUTH HAVEN    CLOUDY    32  26  78 NW15G24   29.87R WCI  21
$$
MIZ016>042-232200-
NORTHERN LOWER MICHIGAN

CITY           SKY/WX    TMP DP  RH WIND       PRES   REMARKS
ALPENA         LGT SNOW  20  14  77 NW16G28   29.70R WCI   6
BEAVER ISLAND  PTSUNNY   24  19  81 N3        29.82R
BELLAIRE       FLURRIES  24  20  85 N6        29.80R WCI  17
CADILLAC       CLOUDY    22  18  87 NW17G24   29.73R WCI   7
CHARLEVOIX     CLOUDY    24  20  85 N6        29.83R WCI  17
FRANKFORT      CLOUDY    30  22  73 N9G21     29.84R WCI  22
GAYLORD        LGT SNOW  19  17  92 NW9G18    29.71R FOG     WCI   8
GRAYLING       LGT SNOW  21  15  77 NW15G25   29.73R WCI   8
HARBOR SPRINGS CLOUDY    21  17  83 NW3       29.77R
HOUGHTON LAKE  LGT SNOW  21  16  81 NW13G23   29.71R WCI   9
MANISTEE       CLOUDY    29  23  78 N17G25    29.83R WCI  17
OSCODA         LGT SNOW  22  18  84 NW15G21   29.68R WCI   9
PELLSTON       CLOUDY    21  16  81 NW15      29.78R WCI   8
ROGERS CITY    FLURRIES  20  16  84 NW10      29.73R WCI   8
TRAVERSE CITY  FLURRIES  28  20  71 N13G23    29.80R WCI  17
$$
MIZ007>008-015-232200-
EASTERN UPPER MICHIGAN

CITY           SKY/WX    TMP DP  RH WIND       PRES   REMARKS
KINROSS        CLOUDY    19  16  86 N15G23    29.76R WCI   5
MACKINAC ISLAN CLOUDY    21  17  83 N10G22    29.76R WCI  10
NEWBERRY       CLOUDY    19  17  90 N16G24    29.82R WCI   5
S. S. MARIE    CLOUDY    21  11  65 NW10G20   29.75R WCI  10
MUNISING         N/A     22  19  89 N21G30    29.90R WCI   6
$$
MIZ004>006-011>014-085-232200-
CENTRAL UPPER MICHIGAN

CITY           SKY/WX    TMP DP  RH WIND       PRES   REMARKS
ESCANABA       FLURRIES  23  17  78 NW10G23   29.92R WCI  12
MENOMINEE      CLOUDY    27  20  75 N9G18     29.93R WCI  18
SAWYER-GWINN   LGT SNOW  18  14  86 W17G24    29.90R WCI   2
$$
MIZ001>003-009>011-084-232200-
WESTERN UPPER MICHIGAN

CITY           SKY/WX    TMP DP  RH WIND       PRES   REMARKS
IRON MOUNTAIN  CLOUDY    22  16  78 NW14G24   29.91R WCI   9
HOUGHTON       LGT SNOW  16  10  77 N17       29.99R WCI   0
COPPER HARBOR    N/A     19  12  74 NE18G28   30.00R WCI   4
IRONWOOD       FLURRIES  20  16  84 N7        30.02R WCI  11
$$

ABBREVIATIONS USED IN REMARKS
   TC - TEMPERATURE IN CELSIUS
  WCI - WIND CHILL INDEX
   HX - HEAT INDEX
  VSB - VISIBILITY





USA.gov is the U.S. government's official web portal to all federal, state and local government web resources and services.